Weather Roundup
Issued by NWS

Home | Current Version | Previous Version | Text Only | Print | Product List | Glossary On
Versions: 1 2 3 4 5 6 7 8 9 10 11 12 13 14 15 16 17 18 19 20 21 22 23 24 25 26 27 28 29 30 31 32 33 34 35 36 37 38 39 40 41 42 43 44 45 46 47 48 49 50
737
NZUS93 KARX 221310
HRRWXR

CURRENT HOURLY OBSERVATIONS ACROSS
MUCH OF THE UPPER MISSISSIPPI VALLEY
NATIONAL WEATHER SERVICE LA CROSSE WI
800 AM CDT MON MAY 22 2017


...SOUTHEAST MINNESOTA...


CITY           SKY/WX    TMP DP  RH WIND       PRES   REMARKS
ROCHESTER      MOSUNNY   48  45  89 SW10      29.91S
ROCHESTER/MAYO FAIR      50  43  78 CALM      29.90F
WINONA         SUNNY     52  43  71 CALM      29.91F
AUSTIN         PTSUNNY   48  45  87 SW5       29.90R
ALBERT LEA     PTSUNNY   50  45  81 SW6       29.90R
DODGE CENTER   SUNNY     48  43  81 S6        29.89F
PRESTON        MOSUNNY   46  42  84 SW3       29.92S
OWATONNA       SUNNY     50  43  76 S8        29.89S
FARIBAULT      SUNNY     48  45  87 S5        29.89S
$$

...ELSEWHERE IN MINNESOTA...


CITY           SKY/WX    TMP DP  RH WIND       PRES   REMARKS
MINNEAPOLIS    MOSUNNY   50  41  71 W6        29.87S
INTNL FALLS    LGT RAIN  45  43  93 W6        29.72S FOG
DULUTH         CLOUDY    46  44  93 W9        29.75S
RED WING       SUNNY     52  41  66 W3        29.87S
REDWOOD FALLS  SUNNY     49  43  80 CALM      29.88S
MANKATO          N/A     48  44  86 CALM      29.89S
WORTHINGTON    CLOUDY    52  46  80 SW12      29.89S
FAIRMONT       CLOUDY    51  45  79 SW6       29.89S
$$

...SOUTHWEST WISCONSIN...


CITY           SKY/WX    TMP DP  RH WIND       PRES   REMARKS
LA CROSSE      SUNNY     53  44  71 S10       29.91F
PRAIRIE DU CHI CLOUDY    50  43  75 S5        29.96S
BOSCOBEL       SUNNY     51  43  74 SW6       29.96F
LONE ROCK      SUNNY     51  43  74 SW5       29.96S
PLATTEVILLE    SUNNY     50  48  92 S9        29.98F
FORT MC COY    PTSUNNY   51  44  77 SW6       29.93S
CAMP DOUGLAS   MOSUNNY   50  43  76 W9        29.92S
MAUSTON-NEW LI SUNNY     50  42  74 W7        29.92S
VIROQUA        FAIR      49  43  80 N7        29.93S
WIS DELLS      MOSUNNY   49  42  74 SW8       29.95R
$$

...ELSEWHERE IN WISCONSIN...


CITY           SKY/WX    TMP DP  RH WIND       PRES   REMARKS
MILWAUKEE      MOSUNNY   53  42  66 SW14      29.97S
MADISON        MOSUNNY   51  42  71 SW8       29.97R
GREEN BAY      CLOUDY    50  44  80 W16G22    29.88R
EAU CLAIRE     SUNNY     49  44  83 SW9       29.86F
BLACK RVR FLS  CLOUDY    48  42  79 SW6       29.91S
MEDFORD        CLOUDY    44  42  93 W7        29.84F
WAUSAU         CLOUDY    46  42  86 W12       29.85S
WIS RAPIDS     SUNNY     50  42  74 W12       29.91S
MARSHFIELD     SUNNY     47  42  83 W9        29.87S
RICE LAKE      MOSUNNY   47  43  86 W10       29.86S
$$

...NORTHEAST IOWA...


CITY           SKY/WX    TMP DP  RH WIND       PRES   REMARKS
WATERLOO       CLOUDY    48  44  86 CALM      29.95S
DUBUQUE        MOSUNNY   50  45  83 S12       29.97F
DECORAH        MOSUNNY   48  45  87 SW5       29.92F
MASON CITY     LGT RAIN  47  44  90 S7        29.93F
CHARLES CITY   CLOUDY    45  45 100 S8        29.94S
OELWEIN        CLOUDY    46  46 100 S6        29.97S
$$

...ELSEWHERE IN IOWA...


CITY           SKY/WX    TMP DP  RH WIND       PRES   REMARKS
DES MOINES     CLOUDY    58  44  60 S14       29.96F
IOWA CITY      CLOUDY    53  45  74 S7        30.02S
FORT DODGE     CLOUDY    55  48  76 SW5       29.93S
MARSHALLTOWN   CLOUDY    53  46  77 NW10      29.97R
CEDAR RAPIDS   CLOUDY    50  46  86 SW12      29.98R
$$

...NORTHERN ILLINOIS...


CITY           SKY/WX    TMP DP  RH WIND       PRES   REMARKS
CHICAGO-OHARE  MOSUNNY   53  43  68 SW12      30.04R
CHICAGO-MIDWAY MOSUNNY   54  44  69 SW12      30.05R
MOLINE         SUNNY     57  46  66 SW10      30.02F
ROCKFORD       SUNNY     53  44  71 SW7       30.05R
PEORIA         SUNNY     56  49  77 SW7       30.07F
$$

NOTE: "FAIR" INDICATES FEW OR NO CLOUDS BELOW 12,000 FEET WITH NO
SIGNIFICANT WEATHER AND/OR OBSTRUCTIONS TO VISIBILITY. WIND
SPEEDS ARE IN MILES-PER-HOUR.




USA.gov is the U.S. government's official web portal to all federal, state and local government web resources and services.